Lincoln, IL

8:50 PM CST on December 14, 2019 (GMT -0600)
Lincoln

Weather History for KAAA - November, 2019

Change the Weather History Date:

Friday, November 15, 2019

  Actual Average (KSPI) Record (KSPI)
Temperature  
Mean Temperature 28 °F -  
Max Temperature 43 °F 51 °F 78 °F (1955)
Min Temperature 14 °F 34 °F 11 °F (1940)
Degree Days  
Heating Degree Days 36    
Moisture  
Dew Point 25 °F    
Average Humidity 83    
Maximum Humidity 97    
Minimum Humidity 58    
Precipitation  
Precipitation 0.00 in - - ()
Sea Level Pressure  
Sea Level Pressure 30.39 in    
Wind  
Wind Speed 1 mph ()    
Max Wind Speed 7 mph    
Max Gust Speed -    
Visibility 8.5 miles    
Events      
Averages and records for this station are not official NWS values.
T = Trace of Precipitation, MM = Missing Value Source: Averaged Metar Reports

Daily Weather History Graph

Daily Weather History Graph

Search for Another Location

Airport or City:

Astronomy

Nov. 15, 2019 Rise Set
Actual Time 6:42 AM CST 4:40 PM CST
Civil Twilight 6:13 AM CST 5:09 PM CST
Nautical Twilight 5:40 AM CST 5:42 PM CST
Astronomical Twilight 5:08 AM CST 6:14 PM CST
Moon 7:16 PM CST 9:39 AM CST
Length of Visible Light 10h 56m
Length of Day
9h 58m
Waning Gibbous, 90% of the Moon is Illuminated
Nov 15
Waning Gibbous
Nov 19
Last Quarter
Nov 26
New
Dec 4
First Quarter
Dec 11
Full

Hourly Weather History & Observations

Time (CST) Temp. Windchill Dew Point Humidity Pressure Visibility Wind Dir Wind Speed Gust Speed Precip Events Conditions
12:15 AM 20.5 °F - 18.7 °F 93% 30.37 in 10.0 mi Calm Calm - N/A   Clear
12:35 AM 20.5 °F - 19.0 °F 94% 30.38 in 10.0 mi Calm Calm - N/A   Clear
12:55 AM 20.1 °F - 18.9 °F 95% 30.38 in 7.0 mi Calm Calm - N/A   Clear
1:15 AM 20.3 °F - 18.7 °F 93% 30.38 in 10.0 mi Calm Calm - N/A   Clear
1:35 AM 20.3 °F - 19.0 °F 95% 30.38 in 7.0 mi Calm Calm - N/A   Clear
1:55 AM 20.5 °F - 18.9 °F 93% 30.38 in 10.0 mi Calm Calm - N/A   Clear
2:35 AM 18.5 °F - 16.9 °F 93% 30.38 in 7.0 mi Calm Calm - N/A   Clear
2:55 AM 17.4 °F - 16.2 °F 95% 30.38 in 7.0 mi Calm Calm - N/A   Clear
3:15 AM 17.2 °F - 16.0 °F 95% 30.38 in 7.0 mi Calm Calm - N/A   Clear
3:35 AM 16.9 °F - 15.6 °F 95% 30.39 in 7.0 mi Calm Calm - N/A   Clear
3:55 AM 18.1 °F - 17.2 °F 96% 30.38 in 5.0 mi Calm Calm - N/A   Clear
4:15 AM 17.4 °F - 16.2 °F 95% 30.39 in 7.0 mi Calm Calm - N/A   Clear
4:35 AM 17.2 °F - 16.2 °F 96% 30.39 in 7.0 mi Calm Calm - N/A   Clear
4:55 AM 14.2 °F - 12.7 °F 94% 30.39 in 7.0 mi Calm Calm - N/A   Clear
5:15 AM 14.9 °F - 13.6 °F 95% 30.39 in 7.0 mi Calm Calm - N/A   Clear
5:35 AM 15.4 °F - 14.0 °F 94% 30.40 in 7.0 mi Calm Calm - N/A   Clear
5:55 AM 15.8 °F - 14.0 °F 93% 30.40 in 7.0 mi Calm Calm - N/A   Clear
6:35 AM 16.3 °F - 14.7 °F 93% 30.40 in 7.0 mi Calm Calm - N/A   Clear
6:55 AM 16.5 °F - 14.9 °F 93% 30.41 in 7.0 mi Calm Calm - N/A   Clear
7:35 AM 20.5 °F - 19.2 °F 95% 30.40 in 5.0 mi Calm Calm - N/A   Clear
7:55 AM 23.4 °F - 21.7 °F 94% 30.40 in 7.0 mi Calm Calm - N/A   Clear
8:15 AM 26.1 °F - 22.8 °F 88% 30.41 in 7.0 mi Calm Calm - N/A   Clear
8:35 AM 27.5 °F - 22.8 °F 83% 30.41 in 10.0 mi Calm Calm - N/A   Clear
8:55 AM 28.9 °F 25.2 °F 23.2 °F 79% 30.41 in 10.0 mi SSW 3.5 mph - N/A   Clear
9:15 AM 30.4 °F - 23.7 °F 76% 30.42 in 10.0 mi Calm Calm - N/A   Clear
9:35 AM 32.0 °F 28.7 °F 23.5 °F 71% 30.42 in 10.0 mi SW 3.5 mph - N/A   Clear
9:55 AM 32.9 °F - 24.1 °F 70% 30.42 in 10.0 mi Calm Calm - N/A   Clear
10:15 AM 34.0 °F - 24.8 °F 69% 30.42 in 10.0 mi Calm Calm - N/A   Clear
10:35 AM 35.4 °F 32.6 °F 25.7 °F 68% 30.42 in 10.0 mi West 3.5 mph - N/A   Clear
10:55 AM 36.5 °F 32.7 °F 26.2 °F 66% 30.41 in 10.0 mi WNW 4.6 mph - N/A   Clear
11:15 AM 37.4 °F 32.8 °F 26.4 °F 65% 30.41 in 10.0 mi West 5.8 mph - N/A   Clear
11:35 AM 37.9 °F 35.5 °F 26.4 °F 63% 30.39 in 10.0 mi West 3.5 mph - N/A   Clear
11:55 AM 39.2 °F 34.2 °F 26.4 °F 60% 30.39 in 10.0 mi West 6.9 mph - N/A   Clear
12:15 PM 39.9 °F - 27.3 °F 61% 30.38 in 10.0 mi Calm Calm - N/A   Clear
12:35 PM 40.8 °F 38.8 °F 28.2 °F 61% 30.38 in 10.0 mi WSW 3.5 mph - N/A   Clear
12:55 PM 41.2 °F 39.2 °F 27.5 °F 58% 30.37 in 10.0 mi WNW 3.5 mph - N/A   Clear
1:15 PM 42.1 °F 40.2 °F 28.6 °F 59% 30.37 in 10.0 mi West 3.5 mph - N/A   Clear
1:35 PM 42.6 °F 40.9 °F 28.9 °F 58% 30.37 in 10.0 mi WNW 3.5 mph - N/A   Clear
1:55 PM 42.8 °F 41.1 °F 29.3 °F 59% 30.36 in 10.0 mi West 3.5 mph - N/A   Clear
2:15 PM 43.5 °F 41.9 °F 30.6 °F 60% 30.36 in 10.0 mi West 3.5 mph - N/A   Clear
2:35 PM 43.7 °F 42.1 °F 30.6 °F 60% 30.36 in 10.0 mi West 3.5 mph - N/A   Clear
2:55 PM 43.9 °F 42.3 °F 31.3 °F 61% 30.36 in 10.0 mi WNW 3.5 mph - N/A   Clear
3:15 PM 43.9 °F - 31.6 °F 62% 30.36 in 10.0 mi Calm Calm - N/A   Clear
3:35 PM 43.7 °F 42.1 °F 31.5 °F 62% 30.36 in 10.0 mi NW 3.5 mph - N/A   Clear
3:55 PM 42.8 °F - 32.0 °F 66% 30.36 in 10.0 mi Calm Calm - N/A   Clear
4:15 PM 42.3 °F - 31.8 °F 67% 30.36 in 10.0 mi Calm Calm - N/A   Clear
4:35 PM 40.6 °F - 31.6 °F 70% 30.36 in 10.0 mi Calm Calm - N/A   Clear
4:55 PM 39.0 °F - 31.6 °F 75% 30.36 in 10.0 mi Calm Calm - N/A   Clear
5:15 PM 36.9 °F - 31.6 °F 81% 30.37 in 10.0 mi Calm Calm - N/A   Clear
5:35 PM 35.2 °F - 30.9 °F 84% 30.37 in 10.0 mi Calm Calm - N/A   Clear
5:55 PM 34.2 °F - 30.9 °F 88% 30.37 in 10.0 mi Calm Calm - N/A   Clear
6:15 PM 34.7 °F - 31.1 °F 87% 30.37 in 10.0 mi Calm Calm - N/A   Clear
6:35 PM 33.8 °F - 30.9 °F 89% 30.38 in 10.0 mi Calm Calm - N/A   Clear
6:55 PM 32.0 °F - 30.0 °F 92% 30.38 in 10.0 mi Calm Calm - N/A   Clear
7:15 PM 32.9 °F - 30.7 °F 92% 30.38 in 10.0 mi Calm Calm - N/A   Clear
7:35 PM 32.2 °F - 30.2 °F 92% 30.38 in 10.0 mi Calm Calm - N/A   Clear
7:55 PM 32.0 °F - 30.2 °F 93% 30.38 in 7.0 mi Calm Calm - N/A   Clear
8:15 PM 31.5 °F - 29.8 °F 94% 30.38 in 7.0 mi Calm Calm - N/A   Clear
8:35 PM 31.1 °F - 29.5 °F 94% 30.38 in 7.0 mi Calm Calm - N/A   Clear
8:55 PM 30.6 °F - 29.3 °F 95% 30.38 in 7.0 mi Calm Calm - N/A   Clear
9:15 PM 30.0 °F - 28.8 °F 95% 30.39 in 7.0 mi Calm Calm - N/A   Clear
9:35 PM 29.8 °F - 28.6 °F 95% 30.39 in 7.0 mi Calm Calm - N/A   Clear
9:55 PM 28.4 °F - 27.5 °F 96% 30.39 in 5.0 mi Calm Calm - N/A   Clear
10:15 PM 28.9 °F - 28.2 °F 97% 30.39 in 5.0 mi Calm Calm - N/A   Clear
10:35 PM 28.0 °F - 26.8 °F 95% 30.39 in 7.0 mi Calm Calm - N/A   Clear
10:55 PM 28.6 °F - 27.1 °F 94% 30.39 in 7.0 mi Calm Calm - N/A   Clear
11:15 PM 28.4 °F - 27.3 °F 96% 30.39 in 7.0 mi Calm Calm - N/A   Clear
11:35 PM 29.1 °F - 27.7 °F 94% 30.39 in 7.0 mi Calm Calm - N/A   Clear
11:55 PM 28.2 °F 24.4 °F 26.4 °F 93% 30.39 in 7.0 mi NNE 3.5 mph - N/A   Clear